Regional Weather Roundup
Issued by NWS

Home | Current Version | Previous Version | Graphics & Text | Print | Product List | Glossary On
Versions: 1 2 3 4 5 6 7 8 9 10 11 12 13 14 15 16 17 18 19 20 21 22 23 24 25 26 27 28 29 30 31 32 33 34 35 36 37 38 39 40 41 42 43 44 45 46 47 48 49 50
000
ASUS43 KIND 011959
RWRIN

WEATHER ROUNDUP FOR INDIANA
NATIONAL WEATHER SERVICE INDIANAPOLIS IN
400 PM EDT SUN MAY 01 2016

NOTE: "FAIR" INDICATES FEW OR NO CLOUDS BELOW 12,000 FEET WITH NO
SIGNIFICANT WEATHER AND/OR OBSTRUCTIONS TO VISIBILITY.

* - STATION DOES NOT REPORT WEATHER SUCH AS PRECIPITATION OR FOG.

+ - STATION NOT QUALITY CONTROLLED BY THE NATIONAL WEATHER SERVICE.
    USE DATA WITH CAUTION...ESPECIALLY DEWPOINT AND RELATIVE
    HUMIDITY OBSERVATIONS.

INZ001>003-010>013-019-020-012100-
NORTHWEST INDIANA

CITY           SKY/WX    TMP DP  RH WIND       PRES   REMARKS
GARY /AIRPORT/ CLOUDY    50  50 100 N8        30.00S FOG

$$

LMZ046-743>745-012100-
SOUTHERN LAKE MICHIGAN

STATION/POSITION TIME  TEMP    WIND        PRES    WAVE
                       AIR SEA DIR/SP/G            HT
                 (UTC) (F)     (DEG/KT/KT) (MB)    (FT)
BURNS HARBOR     1916   45      20/  9/ 11 1016.3R
MICHIGAN CITY    1900   45     360/  9/ 10   N/A

$$

INZ004-005-014>016-021>024-012100-
NORTH CENTRAL INDIANA

CITY           SKY/WX    TMP DP  RH WIND       PRES   REMARKS
ELKHART        CLOUDY    55  54  94 MISG      29.98S
GOSHEN         CLOUDY    55  51  86 NE7       29.97S
SOUTH BEND     CLOUDY    55  49  80 NE3       29.98S

$$

INZ006>009-017-018-025>027-012100-
NORTHEAST INDIANA

CITY           SKY/WX    TMP DP  RH WIND       PRES   REMARKS
ANGOLA *+      CLOUDY    54  52  94 N3        29.96F
FORT WAYNE     CLOUDY    63  56  78 N5        29.95F

$$

INZ028-029-035-036-043>045-051>053-012100-
WEST CENTRAL INDIANA

CITY           SKY/WX    TMP DP  RH WIND       PRES   REMARKS
CRAWFORDSVL +  MOSUNNY   69  60  71 CALM      29.92F
GREENCASTLE +  PTSUNNY   72  61  68 CALM      29.91F
LAFAYETTE      PTSUNNY   65  57  75 CALM      29.93F
TERRE HAUTE    PTSUNNY   73  58  59 MISG      29.91F

$$

INZ030>032-037>040-046>048-054>057-064-065-012100-
CENTRAL INDIANA

CITY           SKY/WX    TMP DP  RH WIND       PRES   REMARKS
COLUMBUS       MOSUNNY   75  59  57 E5        29.90F
INDIANAPOLIS   PTSUNNY   73  55  53 W8        29.89F
-EAGLE CREEK   MOSUNNY   74  56  53 CALM      29.90F
KOKOMO *+      CLOUDY    70  59  68 N13       29.92F
SHELBYVILLE    MOSUNNY   77  57  50 VRB5      29.89F

$$

INZ033-034-041-042-049-050-058-059-012100-
EAST CENTRAL INDIANA

CITY           SKY/WX    TMP DP  RH WIND       PRES   REMARKS
MUNCIE         MOSUNNY   75  55  49 VRB6      29.91F

$$

INZ060-061-067>069-081>083-085>088-012100-
SOUTHWEST INDIANA

CITY           SKY/WX    TMP DP  RH WIND       PRES   REMARKS
EVANSVILLE     MOSUNNY   75  65  70 W8        29.90F
HUNTINGBURG *+ PTSUNNY   73  64  73 SW13      29.91R THUNDER

$$

INZ062-063-066-070>080-084-089>092-012100-
SOUTH CENTRAL AND SOUTHEAST INDIANA

CITY           SKY/WX    TMP DP  RH WIND       PRES   REMARKS
BLOOMINGTON    SUNNY     76  55  48 VRB3      29.89F
MADISON *+     CLOUDY    77  54  44 SW3       29.91F
SEYMOUR +      MOSUNNY   81  59  47 W6        29.88F

$$




USA.gov is the U.S. government's official web portal to all federal, state and local government web resources and services.